Wetbulb
45.02 44.68 44.87 45.85 46.37 45.73 45.39 45.03 44.48 44.12 44.05 44.05 44.09 44.14 44.41 45.19 45.58 44.60 43.25 46.68 42.05 39.44 45.52 46.84 47.46 45.21 44.70 44.84 39.52 42.33 40.51 40.59 39.63 36.19 35.49 36.07 35.90 38.57 37.43 39.77 38.30 36.21 34.54 33.42 33.87 32.07 30.58 45.40 45.98 40.46 43.83 45.33 44.74 43.23
44.62 44.42 44.66 45.69 45.81 45.48 45.16 44.77 44.29 43.94 43.73 43.64 43.67 43.89 44.82 44.36 44.58 44.92 41.45 44.91 44.99 40.92 46.25 49.54 50.17 49.81 48.87 47.80 45.12 44.19 41.98 41.14 41.88 37.88 37.90 39.52 37.80 39.79 38.96 34.52 42.25 36.54 40.54 38.46 38.95 39.21 47.32 48.56 46.56 47.30 45.11 43.61 43.87 43.06
44.30 44.41 44.43 45.97 45.63 45.36 45.14 44.74 44.37 44.05 43.88 43.73 43.84 43.93 44.21 43.90 44.65 44.30 42.73 43.90 43.34 44.16 47.31 47.67 46.61 50.37 51.59 51.06 51.85 43.04 42.86 44.96 43.09 46.27 42.45 41.53 38.12 42.65 36.94 38.03 40.53 43.21 45.39 41.13 41.69 45.21 46.70 48.02 48.11 45.35 43.80 42.15 42.25 43.17
43.85 44.16 44.66 45.92 44.91 45.22 45.21 44.80 44.41 44.33 44.22 44.26 43.99 43.85 43.96 43.56 43.90 44.20 42.03 44.23 41.85 40.74 40.16 44.26 50.43 48.47 50.74 50.91 50.26 49.49 46.94 47.21 46.85 45.92 42.33 40.64 39.35 44.76 40.81 41.10 41.19 44.00 44.23 43.03 42.96 45.73 47.04 45.18 44.48 43.58 41.79 41.32 40.61 41.46
43.74 43.84 44.25 45.66 44.37 45.02 45.24 44.92 44.48 44.34 44.27 44.18 43.57 43.77 44.07 43.83 43.79 44.27 44.33 44.30 44.49 39.81 39.03 43.44 48.32 48.17 48.91 48.95 48.49 49.13 47.70 45.65 43.95 41.76 40.39 39.73 42.98 43.09 44.16 42.66 40.68 45.36 43.25 41.43 41.11 45.61 45.10 44.03 44.01 43.30 41.32 39.15 39.72 39.43
43.61 43.61 44.07 45.37 44.57 44.69 44.74 44.78 44.47 44.37 44.08 43.63 43.39 44.03 44.42 44.67 43.89 42.12 40.79 44.82 45.90 44.47 40.60 40.29 47.45 45.50 47.07 47.93 47.14 46.80 46.73 45.34 44.14 42.25 42.26 44.40 47.09 44.47 40.82 39.11 44.67 47.60 48.36 48.04 46.05 45.88 45.14 44.51 43.33 42.65 40.36 39.50 39.29 38.54
43.46 43.29 44.24 45.12 44.67 44.56 44.92 44.55 44.43 44.09 43.50 43.79 44.11 44.29 44.42 44.52 44.04 38.07 39.51 43.11 45.52 44.50 41.76 39.90 42.14 45.94 47.08 46.18 45.37 45.31 46.40 45.07 44.03 42.47 42.35 43.57 44.14 44.32 41.65 38.50 45.23 47.38 48.01 47.94 48.13 45.85 43.73 43.48 42.44 41.33 39.55 38.56 38.72 37.63
43.16 43.41 44.38 44.95 44.42 44.55 44.69 44.39 44.28 43.51 43.90 43.71 43.99 45.20 45.67 45.50 44.53 40.61 44.78 46.25 46.62 43.17 44.49 38.96 39.57 42.17 46.56 43.15 42.07 46.11 43.26 43.92 43.74 42.73 43.59 42.54 43.48 42.31 37.80 44.21 46.67 48.08 48.32 46.85 46.55 46.54 45.53 44.42 41.57 38.82 37.77 37.12 35.12 34.16
43.01 43.43 44.29 44.58 44.20 44.46 44.46 44.32 43.76 43.65 43.28 43.23 43.94 44.97 44.83 43.10 40.57 43.02 44.94 45.43 47.30 44.97 41.12 39.28 36.66 36.89 45.83 44.12 44.17 43.91 44.17 39.39 43.39 40.39 41.29 40.56 40.07 38.05 42.96 45.10 46.37 47.41 45.24 45.46 44.32 43.63 42.87 40.96 38.83 37.60 37.51 37.14 35.21 34.07
43.04 43.25 44.55 44.02 44.19 44.21 44.07 44.02 43.41 43.36 42.36 43.01 44.51 42.07 39.13 42.31 43.50 44.04 44.79 43.05 44.51 44.31 44.31 39.74 43.21 39.42 43.42 43.27 42.53 41.61 40.95 38.56 34.14 38.21 39.32 36.93 38.02 44.23 46.54 47.73 46.98 46.11 45.61 43.25 40.07 38.09 39.54 38.23 37.72 37.80 38.00 38.14 36.70 34.84
42.71 43.15 44.38 43.72 44.00 44.11 43.84 43.20 43.31 42.28 42.17 41.10 38.84 37.24 39.97 42.58 43.41 43.03 38.03 39.85 40.07 36.79 42.64 41.78 41.12 40.10 44.33 39.66 40.32 41.20 38.43 37.41 34.21 35.01 35.60 36.70 36.90 41.81 41.75 40.95 42.50 43.58 45.27 44.09 44.32 43.77 42.53 41.16 39.91 39.08 38.28 37.53 36.43 35.31
42.73 43.65 43.77 43.53 43.73 43.68 42.90 43.08 41.98 40.36 38.82 38.34 38.18 40.16 39.17 39.88 38.97 35.86 34.71 36.98 35.60 35.97 40.19 39.35 40.27 41.05 43.02 43.68 39.83 39.61 36.80 36.76 32.35 37.19 34.05 32.48 39.41 39.49 38.50 38.62 39.98 41.42 43.15 42.93 42.93 42.83 42.85 41.95 41.55 39.92 37.76 36.24 35.85 34.29
42.77 43.80 43.61 43.58 43.56 42.61 42.87 41.77 40.93 40.63 41.18 41.03 37.44 34.56 37.57 36.33 32.66 32.02 30.61 33.58 33.67 35.45 35.63 36.15 37.78 40.06 40.72 41.77 37.68 37.65 33.62 33.41 37.07 33.06 31.89 36.19 39.54 37.68 37.40 38.54 39.86 40.17 41.42 40.98 40.42 42.10 42.62 41.27 40.52 38.46 36.51 36.15 33.97 32.43
42.70 43.85 43.46 43.33 42.82 42.53 41.99 40.43 40.30 40.92 39.65 35.74 32.55 30.50 32.82 31.59 32.54 33.52 33.41 34.08 36.02 36.22 36.48 37.15 36.74 37.93 39.34 38.03 37.61 33.98 35.68 34.70 31.41 29.42 31.61 39.53 36.78 34.52 36.82 38.47 39.05 38.96 39.22 39.14 38.87 39.57 39.19 38.13 37.50 37.40 36.24 34.78 33.34 31.80
42.93 43.69 43.26 42.40 41.65 42.17 40.04 39.46 40.36 41.65 37.35 32.81 33.01 29.29 29.72 33.87 34.37 33.84 33.54 33.93 36.71 37.60 37.02 37.33 36.78 36.73 35.68 34.19 35.25 34.54 32.17 30.23 31.85 33.30 38.81 36.29 34.25 33.95 36.15 37.89 38.59 39.00 38.93 38.68 38.77 38.40 38.10 37.50 36.06 35.16 35.00 34.76 33.67 31.87
43.14 42.80 39.64 40.61 42.29 40.32 39.25 39.40 40.39 39.91 35.03 33.45 32.22 30.36 32.20 31.75 33.20 33.64 31.71 33.76 37.53 36.46 37.16 35.69 34.52 33.61 34.16 35.91 32.13 32.19 30.60 30.20 35.65 35.77 36.11 34.36 33.50 35.10 36.00 36.57 36.69 37.28 37.78 37.85 38.41 38.10 37.11 36.33 35.23 34.57 34.41 33.09 32.11 31.65
42.56 39.40 39.52 40.72 40.59 38.16 38.98 38.48 37.47 33.53 31.42 31.47 30.22 31.92 31.88 30.91 31.23 32.43 32.52 32.28 35.60 34.62 33.52 34.27 31.71 33.13 33.15 31.70 30.69 34.03 32.12 33.35 31.63 32.31 33.67 33.44 31.79 31.93 32.57 34.63 34.97 35.38 36.27 37.03 36.84 36.49 36.07 35.44 33.86 31.96 29.75 30.12 30.11 29.09
40.05 40.17 40.03 41.20 38.77 36.27 36.61 36.61 33.28 31.12 27.86 31.57 28.46 30.34 30.28 30.77 30.24 32.16 33.18 33.91 33.44 32.82 32.81 31.80 31.65 31.17 30.92 30.49 33.14 31.65 30.93 31.70 32.59 32.44 32.14 32.96 33.04 32.83 33.52 33.74 34.14 34.34 34.81 34.88 33.57 31.69 31.59 31.03 30.99 29.78 28.41 27.92 26.75 26.68
41.22 40.90 40.48 39.41 37.47 34.15 30.87 30.46 32.14 25.78 27.58 29.54 29.78 30.44 29.93 29.94 31.67 32.18 31.56 32.43 33.46 34.19 32.16 32.13 30.42 30.61 31.61 30.81 29.14 29.27 28.16 27.92 27.70 29.86 31.73 34.43 33.55 31.54 31.21 31.75 31.84 32.19 32.12 31.52 31.39 31.52 31.64 32.24 29.26 27.66 26.82 27.70 25.86 25.90
43.09 41.10 38.89 38.54 36.17 31.55 26.60 27.00 31.04 27.05 25.61 27.52 28.07 26.89 27.48 27.33 28.76 28.86 30.32 31.51 32.11 31.93 30.45 28.49 30.09 29.62 28.38 27.64 27.74 27.32 27.49 28.67 28.23 28.12 30.71 33.99 34.26 31.31 31.49 30.88 32.14 31.99 31.67 31.73 31.76 31.48 28.29 27.31 28.04 27.88 28.38 27.31 25.87 25.24
37.93 36.88 35.74 34.30 31.20 30.55 28.25 26.63 24.57 26.47 26.67 25.61 26.96 25.31 24.22 25.80 25.09 26.56 29.48 31.70 30.66 29.82 28.70 30.82 28.31 27.43 26.49 25.76 25.87 26.51 27.11 28.02 27.49 27.98 28.16 28.67 32.04 32.80 31.43 31.00 30.39 30.64 30.61 30.47 29.45 28.99 28.73 27.01 27.42 28.85 28.75 27.33 26.99 26.05
34.65 35.33 30.46 29.96 27.63 25.42 25.94 26.02 25.48 25.46 24.22 24.82 24.35 21.86 22.07 23.02 24.08 26.08 26.26 25.44 26.56 30.10 27.85 26.41 25.98 24.61 23.78 23.79 24.21 24.44 24.80 25.43 26.83 27.92 30.37 31.28 30.06 31.31 31.25 30.69 29.58 29.74 30.42 31.13 30.60 29.23 27.65 27.57 28.29 28.60 26.92 25.80 25.67 24.89
33.60 31.07 27.36 26.23 23.62 22.16 19.41 22.52 21.85 21.44 20.42 20.81 19.62 20.45 21.04 21.03 23.98 23.95 22.62 26.32 26.52 25.91 25.33 24.25 23.04 21.35 20.20 21.53 22.33 23.29 25.29 26.12 25.33 26.30 27.47 28.13 29.61 31.63 31.29 30.86 30.16 30.31 29.77 29.84 30.90 28.01 26.54 28.61 27.85 25.78 25.74 24.81 24.19 23.55
31.07 26.90 24.81 23.26 22.08 19.27 18.62 18.28 20.21 19.46 19.13 19.57 19.33 18.43 19.09 21.21 20.79 22.29 21.49 24.90 25.59 23.75 22.75 21.47 20.61 20.02 21.79 21.04 20.77 22.42 22.78 23.94 23.02 24.06 25.91 25.09 26.14 28.59 30.79 30.12 30.21 30.19 30.29 28.56 26.71 26.13 25.93 25.87 27.19 25.62 24.31 23.59 23.25 21.20
25.31 22.42 21.03 17.94 15.81 16.12 16.51 15.86 15.76 17.48 17.27 16.06 17.03 16.75 18.09 18.14 19.69 19.20 19.06 23.96 22.50 22.57 23.25 21.20 19.78 18.89 17.39 18.28 19.95 21.02 22.87 21.71 20.59 20.34 22.03 23.77 24.21 26.93 27.81 28.78 28.97 29.33 28.37 26.35 24.72 25.22 25.20 25.82 25.02 24.10 24.02 22.96 20.79 20.20
21.05 19.86 17.34 19.71 16.50 16.66 17.10 13.42 13.21 15.35 16.60 13.89 15.15 16.45 16.68 18.74 15.51 15.12 20.05 24.35 23.70 23.65 22.18 20.37 19.91 18.50 17.93 18.77 17.54 18.43 19.85 21.58 20.29 18.46 20.42 23.07 23.97 24.30 25.39 26.14 25.30 25.72 27.79 28.02 26.76 25.09 24.52 24.41 24.06 23.64 22.52 23.12 24.51 20.00
20.23 18.92 17.54 19.75 18.21 16.30 15.13 16.36 17.44 16.83 13.41 12.53 16.11 14.77 16.11 11.64 13.56 19.52 23.40 22.43 23.09 22.43 21.11 20.35 18.43 16.94 16.71 17.01 18.22 18.97 19.78 20.17 19.14 19.48 21.63 22.17 22.80 23.52 23.04 23.25 26.25 28.03 28.22 28.52 27.81 26.40 24.83 24.08 23.17 22.94 22.41 22.92 21.85 20.33
22.00 19.87 15.94 16.84 15.96 15.64 14.10 14.66 14.14 13.28 16.30 17.83 18.37 11.67 11.83 14.18 17.03 24.00 23.87 21.52 21.30 17.85 17.00 16.36 15.91 15.36 14.92 15.42 16.61 16.63 17.03 18.64 19.47 20.61 21.74 22.52 23.73 24.31 24.86 26.71 29.69 30.70 28.89 28.95 28.27 27.22 26.22 24.94 24.12 23.35 22.65 20.98 19.77 20.59
19.02 18.46 19.05 13.44 13.52 13.99 14.74 15.69 16.47 18.26 18.59 18.15 17.64 16.93 16.88 19.36 21.41 20.82 18.47 16.21 14.45 14.00 13.75 15.10 16.89 15.82 14.34 15.08 15.99 16.66 17.43 18.34 17.65 15.46 15.01 16.25 19.36 24.15 26.86 28.29 29.15 29.48 28.60 28.42 30.09 28.37 26.80 25.95 25.09 23.71 21.55 20.47 20.16 20.26
18.40 21.10 17.19 13.47 12.21 13.30 16.05 13.71 14.35 11.67 13.50 14.32 13.79 15.63 15.96 17.14 18.28 15.38 14.16 12.46 11.76 13.27 15.59 14.48 12.78 10.84 11.38 11.99 13.30 14.74 17.93 19.00 19.75 18.68 16.97 17.26 20.29 25.72 26.30 26.51 27.45 28.11 27.99 27.80 27.26 27.49 30.37 27.49 25.38 20.56 18.43 17.95 17.76 17.79
17.55 17.54 15.11 15.86 15.00 10.54 7.40 6.94 8.77 11.18 10.29 10.57 8.02 11.57 14.92 13.23 14.56 14.55 12.21 12.97 13.20 11.13 10.51 12.22 13.79 14.40 12.82 12.92 13.62 13.26 13.35 18.17 19.52 20.23 20.96 21.19 21.95 22.99 24.51 26.34 27.14 27.40 27.27 26.35 26.10 25.63 22.53 18.67 17.87 17.12 16.57 16.02 16.70 15.09
16.20 16.14 14.46 11.59 10.86 5.34 6.00 7.35 7.93 9.85 9.11 8.89 11.50 5.41 9.72 11.40 12.60 18.74 11.22 9.45 9.85 11.71 14.41 15.19 12.91 13.73 15.51 15.51 15.88 16.59 19.94 18.74 18.73 19.05 19.10 19.69 21.45 24.44 25.37 26.15 26.48 26.42 25.90 25.08 21.78 19.93 19.25 18.27 17.81 16.88 16.01 15.68 13.58 13.18
8.07 8.03 7.13 8.25 7.24 6.93 6.16 7.85 7.95 8.01 6.91 8.22 8.94 6.67 7.85 9.27 11.40 15.95 9.70 9.46 12.53 13.58 13.57 13.73 13.60 13.47 13.95 14.41 17.48 20.64 23.83 22.88 21.47 25.14 25.76 25.95 25.88 25.74 25.42 25.55 25.52 24.35 22.17 20.94 20.17 19.94 18.86 17.77 16.78 16.27 14.74 13.29 12.62 12.29
MSLP
1018.38 1018.21 1017.90 1017.45 1016.95 1016.31 1016.12 1015.88 1015.39 1014.84 1014.58 1014.19 1013.81 1013.37 1012.92 1012.51 1012.19 1011.83 1011.43 1011.41 1011.34 1010.00 1008.01 1007.36 1006.76 1006.42 1006.69 1006.85 1007.42 1008.46 1009.05 1009.26 1009.41 1009.14 1008.53 1007.03 1005.43 1004.39 1004.12 1003.74 1004.19 1004.86 1005.48 1005.92 1005.83 1004.66 1002.54 1001.23 1000.51 1001.00 1001.59 1001.51 1002.00 1002.69
1018.09 1018.00 1017.61 1017.14 1016.70 1016.21 1015.88 1015.70 1015.27 1014.79 1014.38 1014.03 1013.60 1013.19 1012.68 1012.43 1012.16 1011.73 1011.41 1011.41 1011.25 1010.60 1008.44 1007.55 1007.14 1007.16 1007.06 1007.14 1007.52 1008.18 1008.63 1008.78 1008.93 1008.93 1008.38 1006.95 1005.25 1004.42 1003.50 1002.95 1003.54 1003.47 1003.21 1003.68 1003.70 1002.03 1000.66 1000.75 1001.10 1001.42 1002.15 1002.17 1002.44 1002.95
1017.62 1017.67 1017.14 1016.79 1016.45 1016.05 1015.71 1015.48 1014.90 1014.36 1014.14 1013.78 1013.34 1012.95 1012.62 1012.37 1012.14 1011.95 1011.68 1011.53 1010.87 1010.05 1008.04 1007.27 1006.85 1007.19 1007.26 1007.34 1007.34 1008.02 1008.68 1008.62 1008.81 1008.64 1007.96 1006.50 1005.31 1004.27 1003.15 1002.72 1002.48 1002.55 1002.56 1002.59 1002.35 1001.10 1000.79 1000.75 1001.18 1002.20 1002.73 1003.00 1003.26 1003.47
1017.26 1017.22 1016.88 1016.35 1015.90 1015.67 1015.47 1015.22 1014.58 1014.02 1013.73 1013.36 1012.94 1012.65 1012.42 1012.17 1011.96 1011.91 1011.53 1011.46 1011.57 1010.99 1009.26 1007.53 1007.28 1007.27 1007.59 1007.65 1007.69 1007.91 1008.17 1008.48 1008.66 1008.66 1008.03 1006.98 1005.42 1004.34 1003.30 1003.06 1002.44 1001.88 1002.16 1001.59 1001.35 1000.93 1000.84 1001.53 1002.31 1002.99 1003.55 1003.82 1003.93 1004.12
1017.04 1016.76 1016.46 1016.00 1015.55 1015.04 1015.02 1014.85 1014.26 1013.63 1013.22 1012.87 1012.49 1012.28 1012.09 1011.78 1011.53 1011.28 1010.97 1010.99 1011.23 1011.57 1009.90 1007.97 1007.38 1007.56 1007.69 1007.76 1007.77 1008.03 1008.29 1008.31 1008.49 1008.38 1007.94 1006.61 1005.88 1004.96 1003.68 1003.37 1001.96 1001.46 1000.99 1000.86 1000.54 1001.22 1001.63 1002.23 1002.99 1003.73 1004.20 1004.65 1004.77 1004.94
1016.55 1016.34 1016.00 1015.46 1015.21 1014.82 1014.47 1014.31 1013.77 1013.16 1012.72 1012.31 1011.92 1011.69 1011.46 1011.28 1011.17 1011.09 1010.54 1010.80 1011.07 1011.23 1010.34 1008.26 1007.64 1007.54 1007.67 1007.74 1007.91 1008.00 1008.14 1008.28 1008.21 1007.91 1007.21 1006.35 1005.27 1004.94 1003.52 1002.18 1001.10 1000.62 1000.62 1000.81 1000.78 1001.78 1002.28 1002.90 1003.73 1004.28 1004.83 1005.35 1005.57 1005.93
1016.12 1015.94 1015.67 1015.07 1014.81 1014.57 1014.13 1013.85 1013.36 1012.63 1012.23 1011.58 1011.06 1010.70 1010.50 1010.64 1010.79 1010.87 1010.68 1010.89 1010.94 1011.27 1010.33 1008.63 1007.38 1007.42 1007.52 1007.74 1007.93 1007.96 1008.03 1008.01 1008.06 1007.60 1006.93 1006.00 1005.53 1005.14 1003.95 1002.01 1000.64 1000.52 1000.76 1001.03 1001.38 1002.14 1002.69 1003.35 1004.00 1004.95 1005.52 1006.08 1006.46 1006.87
1015.75 1015.57 1015.17 1014.51 1014.34 1014.28 1013.81 1013.22 1012.79 1012.23 1011.61 1010.94 1010.39 1009.94 1009.75 1009.97 1010.39 1010.51 1010.40 1010.31 1010.72 1010.58 1009.85 1008.86 1007.85 1007.36 1007.53 1007.36 1007.45 1007.60 1007.67 1007.76 1007.64 1007.20 1006.69 1006.18 1005.65 1005.21 1003.41 1001.47 1000.97 1000.65 1000.86 1001.35 1001.74 1002.26 1002.83 1003.55 1004.65 1005.53 1006.20 1006.69 1007.24 1007.81
1015.45 1015.17 1014.73 1014.30 1014.03 1014.00 1013.54 1012.87 1012.24 1011.72 1011.07 1010.47 1010.12 1009.91 1009.91 1010.02 1010.23 1010.10 1010.17 1010.23 1010.25 1010.46 1009.37 1008.88 1008.08 1007.26 1007.33 1007.07 1007.25 1007.41 1007.37 1007.28 1007.30 1006.95 1006.60 1006.39 1005.23 1003.87 1001.77 1001.39 1001.04 1000.98 1001.49 1001.70 1002.40 1003.10 1003.68 1004.17 1005.13 1005.97 1006.34 1006.81 1007.33 1008.02
1014.93 1014.71 1014.36 1014.01 1013.93 1013.67 1013.10 1012.62 1011.97 1011.33 1010.73 1010.22 1009.85 1009.88 1010.12 1010.42 1010.42 1009.99 1010.02 1009.91 1009.87 1009.46 1009.04 1008.61 1007.87 1007.17 1007.31 1007.02 1006.96 1007.28 1007.29 1007.11 1007.12 1007.16 1006.92 1006.17 1004.34 1002.68 1001.76 1001.74 1002.06 1001.96 1002.05 1002.67 1003.06 1003.76 1004.18 1004.67 1005.29 1006.03 1006.43 1006.88 1007.57 1008.25
1014.40 1014.50 1013.92 1013.80 1013.86 1013.51 1012.84 1012.33 1011.82 1011.27 1010.52 1010.31 1010.15 1010.48 1010.60 1010.36 1010.12 1009.84 1009.69 1009.61 1009.55 1009.25 1008.50 1008.38 1008.24 1007.56 1007.48 1007.32 1007.16 1007.53 1007.36 1007.39 1007.23 1007.24 1006.77 1005.43 1003.74 1002.57 1002.69 1002.73 1002.72 1002.56 1002.54 1002.77 1002.93 1003.16 1003.68 1004.21 1005.09 1005.63 1006.45 1007.23 1007.89 1008.59
1014.02 1014.10 1013.50 1013.41 1013.41 1012.86 1012.51 1012.08 1011.80 1011.66 1011.51 1011.50 1011.42 1011.17 1011.01 1010.44 1010.04 1009.93 1009.83 1009.85 1009.62 1009.24 1008.97 1008.72 1008.52 1008.22 1007.77 1007.71 1007.60 1007.67 1007.57 1007.56 1007.24 1007.13 1006.61 1005.15 1003.47 1003.36 1003.39 1003.28 1003.19 1003.00 1002.80 1002.98 1003.22 1003.38 1003.71 1004.20 1004.85 1005.64 1006.40 1007.37 1008.18 1009.11
1013.72 1013.74 1013.33 1013.38 1013.16 1012.70 1012.25 1011.86 1011.77 1011.60 1011.68 1011.37 1011.30 1011.05 1010.56 1010.65 1010.33 1010.06 1010.02 1009.97 1009.92 1009.98 1009.91 1009.47 1008.98 1008.61 1008.32 1008.13 1007.99 1007.93 1007.81 1007.60 1007.45 1007.07 1006.07 1004.62 1003.91 1003.91 1004.01 1003.90 1003.65 1003.58 1003.47 1003.61 1003.69 1003.73 1004.01 1004.56 1005.19 1005.90 1006.75 1007.68 1008.61 1009.60
1013.34 1013.25 1013.07 1013.09 1012.89 1012.62 1012.40 1011.92 1011.58 1011.48 1011.65 1011.16 1011.15 1011.00 1010.66 1010.51 1010.36 1010.22 1010.33 1010.50 1010.59 1010.50 1010.22 1009.89 1009.36 1008.98 1008.63 1008.41 1008.24 1008.11 1007.88 1007.84 1007.39 1006.89 1005.58 1004.58 1004.85 1004.93 1004.75 1004.66 1004.44 1004.20 1004.14 1004.17 1004.32 1004.52 1004.84 1005.34 1005.93 1006.58 1007.31 1008.04 1008.77 1009.81
1013.13 1012.93 1012.77 1012.64 1012.65 1012.29 1012.19 1012.17 1011.59 1011.60 1011.68 1011.41 1011.31 1010.95 1010.79 1010.61 1010.72 1010.86 1010.99 1011.00 1010.95 1010.79 1010.52 1010.06 1009.76 1009.45 1009.05 1008.85 1008.56 1008.46 1008.21 1007.70 1007.17 1006.34 1006.02 1006.21 1006.09 1005.86 1005.62 1005.39 1005.16 1004.89 1004.72 1004.70 1004.84 1005.15 1005.60 1006.10 1006.64 1007.30 1008.12 1008.79 1009.48 1010.38
1012.82 1012.70 1012.54 1012.41 1012.45 1012.24 1012.22 1012.26 1011.74 1011.71 1011.89 1011.59 1011.55 1011.29 1011.06 1011.03 1011.02 1011.20 1011.32 1011.25 1011.23 1011.06 1010.71 1010.52 1010.05 1009.73 1009.22 1008.90 1009.00 1008.51 1008.37 1007.64 1007.48 1007.62 1007.46 1007.35 1007.15 1006.83 1006.60 1006.40 1006.12 1005.83 1005.53 1005.42 1005.46 1005.67 1006.10 1006.65 1007.27 1007.93 1008.75 1009.52 1010.22 1010.86
1012.44 1012.39 1012.23 1012.34 1012.37 1012.27 1012.25 1012.43 1011.78 1011.79 1011.84 1011.58 1011.45 1011.56 1011.38 1011.48 1011.38 1011.46 1011.58 1011.67 1011.70 1011.44 1011.01 1010.75 1010.44 1009.78 1009.67 1009.28 1009.12 1008.70 1008.58 1008.64 1008.85 1008.62 1008.40 1008.23 1008.08 1007.81 1007.61 1007.22 1006.86 1006.55 1006.30 1006.18 1006.26 1006.46 1006.74 1007.19 1007.87 1008.65 1009.42 1010.35 1011.01 1011.79
1012.07 1012.20 1012.36 1012.42 1012.28 1012.26 1012.43 1012.66 1012.17 1012.20 1012.01 1011.81 1011.71 1011.63 1011.89 1011.96 1012.01 1011.92 1011.90 1012.01 1012.01 1011.77 1011.57 1011.41 1011.22 1010.42 1009.72 1009.32 1009.13 1009.52 1009.72 1009.84 1009.61 1009.32 1009.05 1008.60 1008.35 1008.22 1007.95 1007.77 1007.58 1007.41 1007.10 1007.00 1007.13 1007.48 1007.74 1008.09 1008.47 1009.16 1010.00 1010.78 1011.65 1012.56
1011.67 1011.85 1012.26 1012.36 1012.28 1012.39 1013.02 1013.07 1012.73 1012.46 1012.34 1012.26 1012.35 1012.34 1012.32 1012.35 1012.36 1012.36 1012.44 1012.37 1012.31 1012.33 1012.23 1011.75 1011.25 1010.40 1010.04 1010.44 1010.88 1011.11 1011.29 1011.21 1010.69 1010.01 1009.37 1008.56 1008.55 1008.62 1008.56 1008.31 1008.18 1008.11 1008.05 1008.03 1008.05 1008.09 1008.37 1008.59 1008.95 1009.65 1010.35 1011.00 1011.68 1012.73
1011.24 1011.81 1012.40 1012.33 1012.32 1012.81 1013.36 1013.37 1013.16 1012.85 1012.68 1012.77 1012.96 1013.05 1012.91 1012.78 1012.85 1012.80 1012.55 1012.42 1012.41 1012.46 1012.22 1011.73 1010.90 1010.99 1011.48 1011.97 1012.31 1012.27 1012.10 1011.89 1011.45 1010.43 1009.48 1008.76 1008.64 1008.75 1008.63 1008.72 1008.36 1008.34 1008.40 1008.49 1008.58 1008.74 1009.08 1009.45 1009.82 1010.16 1010.46 1011.02 1011.78 1012.68
1011.65 1012.23 1012.67 1012.59 1012.94 1013.32 1013.52 1013.33 1013.37 1013.32 1013.16 1013.12 1013.31 1013.60 1013.50 1013.35 1013.12 1012.97 1012.56 1012.51 1012.55 1012.18 1011.60 1011.14 1011.48 1011.99 1012.47 1012.67 1012.72 1012.60 1012.33 1012.08 1011.79 1011.36 1010.49 1009.54 1009.27 1009.07 1008.88 1008.73 1008.84 1008.68 1008.55 1008.61 1008.76 1009.09 1009.42 1009.60 1009.96 1010.36 1010.80 1011.39 1012.10 1013.05
1011.65 1012.26 1012.66 1012.95 1013.03 1013.65 1013.93 1014.03 1013.66 1013.76 1013.80 1013.51 1013.72 1014.07 1013.74 1013.46 1013.19 1013.00 1013.20 1012.83 1012.20 1011.43 1011.87 1012.10 1012.40 1012.82 1012.90 1012.76 1012.69 1012.75 1012.52 1012.28 1011.87 1011.27 1010.58 1009.94 1009.26 1008.95 1008.72 1008.61 1008.60 1008.73 1008.69 1008.60 1008.65 1008.95 1009.43 1009.93 1010.33 1010.63 1011.17 1012.02 1012.69 1013.67
1011.80 1012.22 1012.72 1013.06 1013.42 1013.80 1014.55 1014.62 1013.93 1013.92 1013.87 1013.79 1014.12 1013.98 1013.83 1013.69 1013.46 1013.62 1012.99 1012.28 1011.88 1012.07 1012.34 1012.74 1013.12 1013.46 1013.39 1013.07 1012.83 1012.53 1012.29 1011.96 1011.57 1011.09 1010.53 1010.07 1009.51 1008.96 1008.75 1008.50 1008.42 1008.20 1008.58 1008.71 1008.74 1009.20 1009.59 1009.95 1010.65 1011.21 1011.69 1012.40 1013.11 1014.18
1011.69 1012.58 1013.06 1013.18 1013.46 1013.87 1014.43 1014.33 1014.04 1013.99 1013.99 1013.96 1013.85 1013.69 1013.70 1013.60 1013.69 1013.22 1012.46 1011.67 1011.54 1012.19 1012.65 1013.02 1013.39 1013.35 1013.11 1013.00 1012.71 1012.19 1012.16 1012.02 1011.72 1011.24 1010.78 1010.37 1009.68 1008.93 1008.67 1008.31 1008.03 1008.04 1007.91 1008.65 1009.06 1009.37 1009.74 1010.10 1010.59 1011.32 1012.05 1012.59 1013.43 1014.30
1012.35 1013.27 1013.44 1013.39 1013.77 1013.95 1013.93 1013.89 1013.80 1013.98 1013.77 1013.88 1013.92 1013.76 1013.80 1013.94 1013.40 1012.76 1011.95 1011.22 1011.58 1012.04 1012.49 1013.05 1013.39 1013.50 1013.40 1012.85 1012.43 1012.14 1012.12 1012.05 1011.68 1011.16 1010.83 1010.54 1009.93 1009.08 1008.48 1008.14 1007.86 1007.82 1007.55 1008.48 1008.97 1009.24 1009.61 1010.07 1010.61 1011.32 1012.00 1012.50 1013.35 1014.38
1011.81 1012.42 1012.68 1012.11 1012.78 1013.06 1012.89 1013.13 1013.43 1013.38 1013.41 1013.69 1013.78 1013.91 1014.03 1013.70 1013.23 1012.02 1011.27 1010.93 1011.37 1011.74 1012.16 1012.63 1012.97 1013.16 1012.97 1012.70 1012.35 1012.01 1011.87 1011.94 1011.82 1011.26 1010.54 1010.19 1009.78 1009.28 1008.51 1007.91 1007.55 1007.49 1007.58 1007.86 1008.55 1008.86 1009.41 1009.85 1010.45 1011.23 1011.76 1012.68 1013.44 1014.32
1011.01 1011.25 1011.80 1012.13 1012.15 1012.53 1012.81 1012.87 1012.92 1012.99 1013.15 1012.97 1013.20 1013.73 1013.76 1013.36 1012.29 1011.08 1010.66 1010.90 1011.21 1011.57 1011.99 1012.35 1012.77 1012.94 1012.67 1012.37 1012.16 1011.95 1011.82 1011.71 1011.50 1010.90 1010.31 1009.93 1009.51 1009.20 1008.92 1008.16 1007.30 1007.01 1007.12 1007.57 1008.15 1008.44 1008.91 1009.51 1010.09 1011.00 1011.81 1012.69 1013.41 1014.09
1010.00 1010.40 1010.95 1011.72 1012.26 1012.71 1012.70 1012.80 1012.82 1012.64 1012.33 1012.43 1012.82 1013.13 1012.68 1011.96 1011.05 1010.40 1010.61 1011.09 1011.33 1011.98 1012.32 1012.56 1012.72 1012.73 1012.54 1012.20 1011.99 1011.72 1011.34 1011.01 1010.61 1010.17 1009.54 1008.88 1008.20 1007.78 1007.61 1007.24 1006.81 1006.67 1006.94 1007.13 1007.52 1008.14 1008.70 1009.25 1009.87 1010.66 1011.63 1012.66 1013.56 1014.51
1009.99 1010.39 1010.89 1011.86 1012.57 1012.93 1012.77 1012.52 1012.31 1012.13 1012.01 1012.28 1012.41 1012.24 1011.79 1011.15 1010.73 1010.72 1011.25 1011.61 1012.10 1012.40 1012.49 1012.43 1012.18 1012.29 1012.16 1011.83 1011.48 1011.15 1010.83 1010.41 1009.94 1009.27 1008.73 1007.96 1007.30 1006.83 1006.64 1006.27 1006.02 1006.10 1006.37 1006.68 1007.00 1007.70 1008.35 1008.91 1009.61 1010.58 1011.73 1012.77 1013.88 1014.81
1009.87 1010.20 1010.87 1011.75 1012.30 1012.59 1012.65 1013.09 1013.13 1013.24 1013.20 1013.14 1013.02 1012.54 1012.09 1011.35 1010.93 1011.23 1011.50 1011.87 1012.18 1012.09 1012.01 1012.13 1012.21 1012.11 1011.80 1011.54 1010.83 1010.23 1009.91 1009.52 1009.08 1008.72 1008.09 1007.50 1006.97 1006.64 1006.46 1006.14 1005.94 1005.82 1006.09 1006.51 1006.87 1007.65 1008.42 1009.26 1010.37 1011.52 1012.53 1013.49 1014.39 1015.45
1010.10 1010.56 1011.15 1011.73 1012.35 1013.30 1014.09 1014.34 1014.26 1013.96 1013.92 1013.89 1013.87 1013.52 1012.77 1012.27 1011.32 1010.94 1011.28 1011.48 1011.71 1012.00 1012.05 1011.85 1011.64 1011.50 1011.39 1011.01 1010.59 1009.97 1009.07 1008.50 1008.11 1007.94 1007.70 1007.35 1006.89 1006.52 1006.29 1005.99 1005.74 1005.71 1005.89 1006.38 1007.01 1007.67 1008.54 1009.84 1010.58 1011.57 1012.78 1013.69 1014.72 1015.63
1010.62 1011.01 1011.52 1012.28 1013.21 1014.25 1014.70 1014.71 1014.41 1014.27 1014.25 1014.11 1013.78 1014.11 1013.60 1013.31 1012.45 1010.92 1011.27 1011.64 1011.85 1011.74 1011.50 1011.42 1011.44 1011.06 1010.81 1010.50 1010.05 1009.50 1008.74 1008.04 1007.64 1007.28 1006.96 1006.60 1006.04 1005.67 1005.70 1005.70 1005.71 1005.89 1006.21 1006.88 1007.74 1008.52 1009.09 1009.83 1010.94 1012.22 1013.33 1014.30 1015.35 1016.49
1011.81 1012.13 1012.52 1012.78 1013.58 1014.23 1014.71 1014.67 1014.53 1014.35 1014.28 1014.03 1013.93 1014.21 1014.12 1013.81 1012.83 1011.24 1011.42 1011.58 1011.49 1011.39 1011.31 1011.26 1011.16 1010.87 1010.46 1009.97 1009.28 1008.53 1007.68 1007.10 1006.60 1006.00 1005.60 1005.39 1005.31 1005.34 1005.47 1005.61 1005.81 1006.19 1006.88 1007.63 1008.33 1008.89 1009.45 1010.36 1011.60 1012.75 1013.96 1015.13 1016.28 1017.28
Wind_Speed
14 14 15 15 16 12 14 15 15 15 15 15 15 15 15 15 17 10 4 2 4 3 1 2 4 1 3 4 3 4 2 1 3 3 3 3 6 4 4 2 6 8 6 4 4 5 7 6 8 5 8 9 7 2
14 15 15 16 15 12 13 14 14 15 15 14 14 14 14 15 16 13 2 3 4 3 4 1 3 2 3 3 3 6 0 3 2 3 4 4 4 3 5 2 3 5 7 3 8 5 9 10 7 7 5 10 5 1
13 16 15 17 14 13 14 15 14 14 15 15 15 15 13 13 13 10 4 3 3 3 3 3 3 3 1 1 1 3 1 3 3 2 2 4 6 2 4 8 3 7 5 4 4 5 4 11 5 3 6 5 4 2
13 15 17 16 14 13 15 15 15 15 17 17 16 14 14 13 12 10 4 1 1 3 3 2 1 1 2 1 2 2 3 2 2 1 2 3 4 0 2 3 5 4 6 4 8 13 2 4 6 5 4 5 6 6
14 15 16 16 15 13 16 16 16 16 17 17 15 14 14 13 13 9 6 3 5 2 3 3 1 2 1 1 3 3 4 4 3 3 4 4 3 4 4 3 7 7 8 7 5 5 3 4 4 4 4 5 7 9
14 14 16 15 14 15 16 17 17 17 18 18 16 17 14 12 8 3 2 2 3 2 3 2 2 2 2 2 1 2 3 2 1 2 3 3 2 3 4 4 6 8 9 11 10 4 4 5 4 5 6 6 9 11
13 14 16 14 14 16 16 17 18 18 19 19 18 16 12 9 5 3 2 1 4 3 3 3 2 2 1 1 1 2 3 2 1 2 3 3 2 2 4 9 6 6 4 5 4 4 3 6 3 7 10 11 12 11
13 14 16 13 14 16 16 17 18 19 21 20 15 9 5 5 3 2 0 1 2 3 3 2 2 2 3 1 2 2 2 2 3 2 1 2 1 2 5 13 12 10 7 6 7 6 2 10 11 10 11 12 13 11
14 14 16 13 13 15 16 17 18 21 22 16 9 0 3 1 1 1 9 12 4 3 2 1 2 1 2 1 1 2 1 3 0 3 1 1 3 7 9 7 6 5 4 2 4 4 7 9 10 11 11 12 13 12
13 14 15 11 13 14 14 17 19 21 19 11 3 2 3 1 9 7 3 2 3 2 2 2 2 1 2 0 0 2 0 1 2 1 2 3 5 13 13 10 5 2 2 8 6 3 4 6 10 12 10 10 11 11
11 14 12 11 13 13 14 15 18 21 5 3 3 2 3 8 2 1 1 2 1 2 2 0 2 3 2 2 2 1 1 1 2 1 2 3 4 2 3 4 5 7 6 9 3 1 10 12 13 13 11 11 11 12
11 14 9 10 12 10 11 13 14 6 3 3 2 1 2 1 1 2 0 1 1 1 2 2 1 2 0 1 2 0 1 1 2 3 2 4 2 3 6 6 6 5 4 7 5 3 8 12 12 12 13 12 12 13
12 14 10 11 10 7 10 10 9 7 4 1 1 1 1 1 2 4 4 3 1 3 3 3 2 2 1 1 1 1 1 2 0 2 3 4 3 4 6 6 5 3 2 2 2 3 7 10 11 12 13 12 14 13
12 12 9 10 7 8 9 7 5 3 3 1 2 1 1 3 1 1 1 2 2 1 3 2 2 1 2 1 1 2 0 2 2 3 5 2 6 8 7 5 5 2 2 3 4 5 8 10 10 11 11 13 14 14
12 11 10 7 4 6 5 4 4 1 2 1 1 2 2 2 2 2 1 2 0 2 2 2 2 1 1 1 1 1 2 4 4 3 3 6 9 7 8 8 6 2 1 4 5 7 8 10 10 11 11 11 12 13
9 9 2 2 6 5 3 3 0 1 1 1 1 2 2 1 2 2 1 0 1 4 1 1 1 1 3 1 2 5 3 5 2 4 5 7 10 10 9 8 6 4 1 2 4 7 9 11 11 12 12 11 11 12
5 3 5 3 4 2 3 3 1 1 2 3 3 0 1 2 1 2 1 1 3 3 1 1 3 3 1 3 4 4 4 3 6 6 6 8 9 9 9 9 6 4 1 3 5 7 9 9 12 12 13 10 11 11
3 2 3 4 2 1 1 2 1 0 3 2 2 3 2 0 1 1 1 2 2 2 2 1 3 4 4 4 2 3 3 5 5 5 7 9 9 9 6 7 5 4 1 2 4 6 8 10 11 8 12 12 12 12
4 4 3 1 2 2 1 0 1 2 2 0 1 0 1 1 2 2 2 2 1 0 3 2 4 4 2 3 3 4 5 6 8 9 10 11 6 7 7 4 2 2 1 3 6 6 6 7 7 9 9 9 9 9
7 7 4 5 3 1 2 1 1 1 2 1 0 2 2 1 1 2 3 3 2 2 4 4 4 1 1 1 2 5 6 6 7 9 8 5 6 5 4 5 3 1 2 3 2 6 6 6 6 7 8 9 10 10
6 4 5 2 2 2 1 2 2 0 0 1 1 1 2 1 1 1 2 1 3 3 4 2 1 0 2 4 4 5 7 7 7 7 9 9 8 7 6 3 3 3 4 5 5 6 7 6 7 7 9 8 8 9
3 7 2 1 2 1 1 2 1 2 1 1 2 1 2 2 2 2 1 3 4 2 1 1 1 3 5 5 6 7 9 10 10 10 14 13 9 7 5 4 3 4 4 4 5 6 5 6 6 8 9 10 11 10
8 2 2 2 1 2 1 2 2 2 3 3 2 3 2 2 1 0 3 3 2 2 2 1 1 3 6 9 9 9 9 8 8 8 8 8 8 7 5 5 5 5 5 5 4 6 6 11 11 9 10 11 11 11
5 3 1 2 3 3 1 2 1 2 1 3 2 2 2 1 2 2 4 3 2 3 3 3 2 4 4 4 5 6 6 6 7 8 7 7 8 7 6 6 5 5 5 4 5 6 7 8 14 10 10 12 12 11
5 4 3 5 1 3 4 4 3 3 3 3 3 2 2 1 2 3 4 2 3 4 4 4 4 4 4 6 6 6 4 6 7 9 8 8 8 8 6 5 5 5 6 7 8 9 9 10 10 11 12 12 14 14
5 5 7 7 4 5 5 6 6 5 3 3 4 1 1 2 2 5 3 3 4 4 5 5 4 4 6 6 8 7 6 5 6 9 8 8 7 7 7 6 4 4 5 7 9 12 12 12 12 15 13 16 22 16
6 7 3 1 1 3 2 2 2 2 5 6 5 5 3 3 6 4 2 3 3 3 3 3 4 5 7 7 7 7 6 6 8 9 9 9 9 9 8 9 8 3 7 9 9 12 14 14 15 14 13 13 13 13
3 5 6 6 3 1 4 3 5 7 5 4 6 5 7 7 5 2 2 2 2 2 2 3 5 6 7 7 6 7 7 7 9 9 9 10 11 9 9 8 8 11 8 9 10 10 12 13 14 15 15 13 12 11
4 4 5 4 3 4 5 6 5 3 2 4 5 4 4 3 1 1 2 2 2 2 3 4 4 3 5 6 6 7 7 7 9 12 13 9 7 5 4 6 5 6 6 8 19 15 15 14 15 14 15 13 11 10
5 5 3 4 6 7 2 0 1 1 1 2 2 3 3 3 2 1 2 3 3 4 4 3 3 3 5 5 7 8 6 7 8 9 9 8 7 4 3 5 5 5 6 8 9 12 23 16 18 15 14 12 11 11
5 3 3 3 3 2 2 2 1 1 1 1 0 2 3 5 5 3 3 3 3 2 2 4 3 3 5 5 6 8 10 4 4 6 7 7 8 8 7 5 4 5 7 10 11 12 15 14 13 16 15 15 17 14
3 3 3 4 3 1 0 0 1 1 0 1 1 1 2 2 4 3 3 3 3 3 4 3 4 5 4 5 7 8 17 11 10 9 11 8 8 8 6 4 5 7 9 10 12 14 17 17 15 15 16 18 16 14
3 2 1 3 3 2 2 1 1 2 1 2 1 1 1 2 6 2 2 3 3 1 1 3 4 5 7 10 10 9 11 7 11 14 15 13 9 8 5 5 6 9 13 12 12 14 17 22 18 18 17 16 14 13
Wind_Direction
304 309 306 311 316 337 333 335 337 340 339 339 343 344 345 350 358 358 283 61 329 323 310 302 343 160 148 214 157 133 133 108 158 210 225 241 261 219 244 191 174 182 180 190 184 223 265 12 313 348 341 313 329 72
304 303 304 307 312 327 329 326 331 334 332 332 334 331 339 349 346 353 309 339 294 229 320 310 309 346 27 5 117 174 334 142 180 217 213 265 238 240 254 234 200 226 214 180 205 233 314 315 297 328 345 304 339 353
302 299 299 305 313 320 319 317 322 328 325 326 326 323 331 335 338 345 311 309 304 275 257 226 214 104 226 347 18 164 212 161 198 279 289 264 261 294 218 234 234 220 197 239 292 194 314 324 326 15 357 359 13 74
294 296 297 307 309 316 314 313 317 323 319 321 325 325 322 319 324 321 300 237 260 281 282 122 95 191 30 27 91 62 107 91 103 187 255 265 276 198 290 348 272 1 161 243 264 277 304 65 43 19 25 45 63 71
289 294 296 305 309 315 310 312 316 320 317 316 318 315 311 305 305 304 281 211 224 272 323 320 217 130 48 170 163 148 190 163 172 191 223 232 201 263 223 284 251 220 250 242 264 54 323 34 48 17 62 71 84 100
286 292 293 306 310 312 311 312 315 319 318 318 314 304 297 293 296 307 210 102 171 199 275 279 71 171 135 119 143 237 168 194 231 220 212 231 285 272 276 267 268 267 241 275 277 74 75 99 87 80 93 92 95 103
287 289 293 306 310 308 310 313 316 323 319 318 317 307 285 262 234 214 359 56 319 320 254 299 277 114 148 147 196 211 167 236 241 229 238 253 195 197 255 246 248 299 259 263 237 167 178 180 141 115 110 104 101 102
285 285 296 309 310 303 310 315 320 323 324 326 322 317 251 181 153 252 106 7 349 240 251 286 277 253 177 211 230 160 206 174 199 266 252 232 128 166 257 254 264 268 286 248 232 210 7 121 127 127 128 124 116 116
279 288 298 309 309 306 312 319 325 327 330 328 324 112 114 86 172 93 328 311 194 279 289 201 271 324 176 241 264 207 219 205 198 234 208 229 180 222 239 274 281 274 221 231 140 166 156 147 142 149 147 138 132 134
279 289 301 310 307 305 319 325 329 331 330 322 230 207 124 117 319 309 164 153 176 226 224 256 293 262 249 4 272 282 132 325 241 117 315 231 255 263 271 285 298 282 213 155 144 171 151 136 156 163 162 146 137 138
283 285 300 307 304 312 328 333 338 336 333 11 21 35 321 318 217 35 22 199 169 270 210 130 298 304 115 289 329 354 298 278 272 63 279 261 260 247 26 315 302 275 223 204 228 226 174 162 164 157 144 139 138 138
282 284 295 297 297 319 327 339 348 349 355 329 291 292 270 316 103 104 37 317 234 292 44 302 6 285 46 297 293 353 293 316 272 331 287 261 267 5 345 331 329 324 236 198 207 179 164 164 163 152 142 142 141 129
275 287 295 296 300 325 326 344 349 322 292 195 228 55 276 69 149 190 175 169 238 13 10 346 304 317 252 253 272 266 269 239 328 254 254 255 346 356 353 343 346 4 102 113 75 127 151 147 143 145 143 139 133 135
269 286 290 295 305 330 332 337 352 326 291 41 346 161 252 153 152 90 33 47 45 297 316 311 279 310 335 270 319 236 280 279 259 250 242 343 5 341 335 343 324 24 87 99 110 129 135 138 139 137 139 141 140 140
269 282 287 293 315 333 332 305 357 18 283 89 262 197 187 67 92 76 45 320 106 309 305 286 263 271 284 288 240 328 232 244 227 251 17 355 336 334 334 342 335 320 138 135 140 145 149 143 141 136 140 142 133 134
275 290 220 96 337 347 320 292 344 75 310 173 233 173 134 182 147 154 109 306 47 334 283 265 262 257 244 207 198 224 245 239 48 355 340 334 338 337 340 335 329 327 286 146 150 149 148 151 148 139 132 132 138 140
261 253 177 317 7 18 5 276 239 47 220 199 177 15 27 25 180 107 76 35 331 306 327 345 235 232 3 207 232 209 228 348 330 321 328 332 324 323 324 321 324 316 267 165 149 154 147 133 129 131 133 133 128 122
221 174 210 312 54 38 20 314 81 254 216 192 196 160 182 131 190 240 111 76 352 4 326 356 313 234 232 224 220 49 357 337 316 326 318 319 320 319 324 323 332 325 276 130 97 110 128 143 147 138 131 126 117 118
200 196 227 172 119 70 261 201 347 184 208 101 350 111 183 216 246 289 284 255 238 297 301 248 251 229 246 46 354 339 333 327 316 318 307 309 330 329 323 329 337 335 83 154 167 168 165 160 135 139 139 141 131 133
214 135 136 103 90 163 225 127 302 190 187 116 309 222 223 190 311 276 272 245 207 200 218 230 241 65 35 84 303 296 299 300 307 308 311 322 342 335 336 320 319 67 156 138 121 132 123 122 135 146 148 143 139 140
109 134 99 70 71 39 335 157 134 61 110 210 102 249 254 262 215 208 185 64 206 222 232 216 212 160 263 282 281 286 290 293 288 285 292 300 315 316 307 285 267 227 205 189 181 182 176 164 153 150 143 136 132 128
108 141 116 62 98 59 185 13 49 107 185 112 173 256 230 208 171 166 345 203 232 228 210 200 297 311 298 299 306 300 294 293 279 279 283 284 290 290 274 253 208 236 234 218 191 179 163 149 152 143 133 129 123 128
112 110 77 76 105 212 213 275 175 160 205 189 178 214 204 209 189 300 229 231 283 206 163 191 267 270 280 294 293 288 282 291 289 291 294 291 289 286 269 249 226 202 219 215 188 156 154 153 152 138 135 135 131 131
51 64 182 198 225 186 163 185 123 139 178 207 203 217 198 192 322 213 248 224 172 145 191 203 245 295 283 257 276 297 301 299 290 285 285 296 294 288 273 262 238 224 191 159 155 154 155 153 151 148 147 142 140 138
134 187 197 204 175 154 195 169 165 195 216 196 200 218 171 255 222 229 241 234 183 196 201 197 224 242 263 284 287 281 287 288 289 290 291 287 286 286 270 243 239 227 151 158 173 168 163 159 155 154 156 148 147 147
211 177 193 193 164 202 182 158 188 188 160 174 218 100 191 194 240 239 223 202 193 194 191 201 220 256 259 246 276 288 295 302 295 280 282 271 275 293 293 270 233 216 200 178 182 173 169 162 159 159 150 155 155 141
214 195 181 219 119 119 113 72 96 169 179 190 176 166 171 202 235 238 196 197 194 190 185 183 203 234 260 277 276 274 277 268 253 264 280 278 270 264 258 268 254 223 180 196 191 179 170 164 157 155 152 155 156 155
225 166 174 167 165 260 157 176 183 200 189 178 145 185 189 202 231 198 182 122 131 135 190 228 235 246 258 264 271 281 278 270 270 268 267 262 250 248 245 249 245 192 186 187 176 169 170 163 158 155 155 151 144 144
186 160 139 139 150 201 217 195 216 193 96 171 181 205 228 229 277 212 170 160 138 194 249 261 253 229 270 271 258 253 256 266 280 281 281 284 291 269 236 249 216 193 182 183 176 168 168 158 153 151 143 140 135 130
170 173 136 161 174 212 169 294 89 53 340 352 329 285 254 250 240 139 190 185 207 227 246 262 273 268 281 293 291 288 268 259 251 249 265 275 278 316 274 243 221 179 164 167 156 152 153 141 135 122 124 125 125 125
129 133 117 175 214 74 53 357 305 330 358 275 317 258 285 321 302 212 220 223 226 206 244 263 266 251 272 280 285 295 298 287 266 274 275 281 277 272 266 255 190 163 153 149 153 148 137 134 133 129 132 130 134 126
148 180 152 177 172 99 180 245 56 285 316 275 217 259 274 273 266 230 161 158 182 217 238 258 275 285 288 284 274 266 266 272 272 269 269 265 263 242 216 188 158 152 148 141 134 138 138 133 133 134 132 127 125 130
100 93 80 128 137 149 134 152 70 300 228 254 248 270 271 275 258 331 136 224 251 278 287 283 282 281 283 283 278 287 301 283 270 277 274 267 234 185 160 149 140 132 132 136 141 140 136 131 129 127 125 127 129 129